This is the latest recevied weather packets stored in our database for station/object SV9FBP-13. If no packets are shown the sender has not sent any weather packets the latest 10 day(s).
| Time | Temp. | Humidity | Pressure | Rain* | Wind** | Luminosity | Snow |
|---|---|---|---|---|---|---|---|
| 1788315762 | 25.56° C | 60% | 1009.3 hPa | 0 mm | - | - | - |
| 1788314859 | 25.56° C | 63% | 1009.4 hPa | 0 mm | - | - | - |
| 1788313958 | 25.56° C | 63% | 1009.3 hPa | 0 mm | - | - | - |
| 1788313056 | 25° C | 65% | 1009.4 hPa | 0 mm | - | - | - |
| 1788312153 | 25.56° C | 64% | 1009.8 hPa | 0 mm | - | - | - |
| 1788311251 | 26.11° C | 61% | 1009.6 hPa | 0 mm | - | - | - |
| 1788310349 | 25.56° C | 62% | 1009.7 hPa | 0 mm | - | - | - |
| 1788309452 | 25° C | 64% | 1009.7 hPa | 0 mm | - | - | - |
| 1788308545 | 25.56° C | 64% | 1009.8 hPa | 0 mm | - | - | - |
| 1788307643 | 25.56° C | 63% | 1009.9 hPa | 0 mm | - | - | - |
| 1788306745 | 25.56° C | 62% | 1009.9 hPa | 0 mm | - | - | - |
| 1788305838 | 25.56° C | 61% | 1010 hPa | 0 mm | - | - | - |
| 1788304936 | 25.56° C | 62% | 1010.3 hPa | 0 mm | - | - | - |
| 1788304034 | 25.56° C | 62% | 1010.2 hPa | 0 mm | - | - | - |
| 1788303138 | 25.56° C | 61% | 1010.2 hPa | 0 mm | - | - | - |
| 1788302230 | 25.56° C | 61% | 1010.3 hPa | 0 mm | - | - | - |
| 1788301328 | 25.56° C | 62% | 1010.4 hPa | 0 mm | - | - | - |
| 1788300425 | 26.11° C | 61% | 1010.4 hPa | 0 mm | - | - | - |
| 1788299523 | 26.11° C | 61% | 1010.4 hPa | 0 mm | - | - | - |
| 1788298621 | 26.11° C | 61% | 1010.5 hPa | 0 mm | - | - | - |
| 1788297719 | 26.11° C | 62% | 1010.4 hPa | 0 mm | - | - | - |
| 1788296817 | 26.11° C | 61% | 1010.6 hPa | 0 mm | - | - | - |
| 1788295914 | 25.56° C | 60% | 1010.6 hPa | 0 mm | - | - | - |
| 1788295013 | 26.11° C | 62% | 1010.6 hPa | 0 mm | - | - | - |
| 1788294110 | 26.11° C | 61% | 1010.7 hPa | 0 mm | - | - | - |
* Rain latest hour (hover to see other rain measurements)
** Current wind speed in m/s (hover to see current wind gust speed)